Regional Weather Roundup
Issued by NWS Cleveland, OH

Home | Current Version | Previous Version | Text Only | Print | Product List | Glossary Off
Versions: 1 2 3 4 5 6 7 8 9 10 11 12 13 14 15 16 17 18 19 20 21 22 23 24 25 26 27 28 29 30 31 32 33 34 35 36 37 38 39 40 41 42 43 44 45 46 47 48 49 50

000
ASUS41 KCLE 270500
RWRCLE
OHIO REGIONAL WEATHER ROUNDUP
NATIONAL WEATHER SERVICE WILMINGTON, OH
100 AM EDT FRI MAY 27 2016

NOTE: "FAIR" INDICATES FEW OR NO CLOUDS BELOW 12,000 FEET WITH NO
SIGNIFICANT WEATHER AND/OR OBSTRUCTIONS TO VISIBILITY.

OHZ001>008-015>018-024>027-034-035-043-044-270600-
   NORTHWEST OHIO

CITY           SKY/WX    TMP DP  RH WIND       PRES   REMARKS
DEFIANCE       FAIR      71  60  68 SW8       29.97S
FINDLAY        FAIR      69  60  73 S12       29.98S
TOLEDO EXPRESS FAIR      71  63  75 SW8       29.95S
TOLEDO EXEC    FAIR      72  63  73 S10       29.97R
LIMA           FAIR      67  61  81 S9        30.00S
$$

OHZ009>014-019>023-028>033-038-089-270600-
   NORTHEAST OHIO

CITY           SKY/WX    TMP DP  RH WIND       PRES   REMARKS
CLE-HOPKINS    CLOUDY    74  65  73 S9        30.00F
CLE-LAKEFRONT  FAIR      76  66  71 S13       29.97F
CUY CO. ARPT   NOT AVBL
LORAIN-ELYRIA  FAIR      72  64  76 SW8       29.99F
ASHTABULA      MOCLDY    72  65  78 S7        30.02R
AKRON-CANTON   FAIR      71  65  81 SW14      30.03S
WOOSTER        NOT AVBL
MANSFIELD      FAIR      70  66  87 S12       30.02S
YOUNGSTOWN     MOCLDY    70  64  81 S5        30.04R
$$

OHZ042-051>053-060>062-070>072-077>081-270600-
  SOUTHWEST OHIO

CITY           SKY/WX    TMP DP  RH WIND       PRES   REMARKS
CINC-COVINGTON MOCLDY    64  63  96 S5        30.03R
CINC-LUNKEN      N/A     62  62 100 SW3       30.05R FOG
HAMILTON       FAIR      66  63  90 CALM      30.04R
DAYTON         NOT AVBL
WRIGHT-PAT AFB NOT AVBL
DAYTON GENERAL FAIR      64  61  90 S6        30.02S
WILMINGTON     FAIR      64  62  93 S3        30.04R
$$

OHZ036-037-039>041-045>050-054>059-063>069-073>076-082>088-270600-
  CENTRAL AND SOUTHEAST OHIO

CITY           SKY/WX    TMP DP  RH WIND       PRES   REMARKS
COLUMBUS       FAIR      70  65  84 S3        30.02F
OSU AIRPORT    NOT AVBL
BOLTON FIELD   NOT AVBL
RICKENBACK AFB NOT AVBL
NEWARK         FAIR      71  66  84 S5        30.03F
MARION         FAIR      69  61  75 SW8       30.02S
LANCASTER      FAIR      70  63  78 S3        30.04F
ZANESVILLE     FAIR      71  65  81 S6        30.05S
NEW PHILLY     FAIR      73  65  75 S3        30.04F
$$



USA.gov is the U.S. government's official web portal to all federal, state and local government web resources and services.